Vorticity
nan nan nan nan nan nan nan nan nan nan nan nan nan nan nan nan nan nan nan nan nan nan nan nan nan nan nan nan nan nan nan nan nan nan nan nan nan nan nan nan nan nan nan nan nan nan nan
nan 6 6 5 7 12 12 5 6 6 6 6 6 5 6 7 8 9 8 9 8 6 6 5 6 11 10 3 11 5 12 10 7 6 5 6 7 3 10 10 4 6 7 5 10 11 nan
nan 7 6 6 6 6 11 14 8 5 6 7 7 6 6 6 8 8 7 8 10 8 7 6 9 11 14 6 3 10 8 8 8 6 5 9 8 5 7 10 6 1 6 11 22 7 nan
nan 7 7 7 5 6 7 10 12 8 5 7 7 7 6 6 6 7 9 9 9 8 9 12 11 11 6 19 13 6 5 5 9 7 8 11 6 3 4 8 11 10 6 10 10 12 nan
nan 8 7 6 7 6 6 6 8 11 8 6 7 6 5 6 6 7 9 8 11 13 13 12 8 7 8 15 16 11 10 7 7 6 7 6 10 9 8 7 10 10 5 18 7 6 nan
nan 7 9 9 7 6 4 5 6 8 11 8 6 6 6 6 6 7 10 13 14 15 8 3 8 8 15 5 13 17 15 9 5 7 7 6 7 11 4 6 3 14 21 3 7 14 nan
nan 8 7 7 8 8 6 5 6 7 8 10 7 7 6 6 6 6 12 20 17 13 4 -1 4 -1 1 13 10 14 16 11 6 7 7 7 2 4 9 8 4 5 10 14 13 5 nan
nan 9 8 7 7 9 9 7 5 7 7 9 10 8 8 6 7 8 12 6 5 9 18 14 1 2 -1 1 8 18 11 7 9 4 5 2 5 6 11 10 13 9 5 13 9 -2 nan
nan 9 9 9 8 8 9 9 8 5 7 9 13 8 8 7 8 13 13 -0 -1 11 11 18 26 16 12 2 5 8 11 6 7 5 4 0 8 12 8 5 7 5 7 10 6 7 nan
nan 9 9 9 10 9 8 10 9 6 6 8 11 10 7 6 12 15 16 10 5 8 11 23 19 25 21 10 14 17 10 2 3 10 6 5 3 12 5 5 7 6 10 -2 3 13 nan
nan 10 9 9 9 9 10 9 10 9 7 8 10 11 11 -3 -0 8 13 20 12 3 6 19 12 11 24 9 9 22 5 8 5 6 7 6 10 5 3 7 5 8 10 8 6 5 nan
nan 10 10 10 10 10 10 10 10 10 8 8 9 10 5 3 3 0 4 16 6 4 14 3 7 9 12 8 -5 17 21 4 9 9 7 7 12 7 9 7 6 11 9 9 10 11 nan
nan 10 10 10 11 10 10 10 10 10 9 8 9 10 4 3 9 11 7 10 7 4 6 15 6 13 8 13 12 16 16 6 5 8 11 9 5 4 14 12 8 9 6 9 8 11 nan
nan 11 11 10 11 11 11 10 10 11 10 7 8 9 7 6 2 11 16 12 7 9 -0 -6 16 12 11 10 17 13 6 8 8 4 5 15 7 8 4 6 7 10 4 7 6 6 nan
nan 12 12 11 11 10 11 11 12 11 9 8 5 4 10 10 6 5 15 13 9 3 10 -2 -1 9 9 8 15 15 10 10 9 2 1 12 12 10 5 8 7 12 6 2 7 9 nan
nan 13 13 13 12 11 12 12 12 11 9 2 2 12 14 12 7 1 13 11 8 8 3 16 4 2 6 11 9 13 16 14 9 5 0 7 11 13 12 6 9 8 13 9 11 7 nan
nan 14 14 13 14 12 12 13 12 12 10 1 -1 10 18 16 6 4 11 18 3 -4 16 14 9 3 9 15 10 7 3 16 20 9 2 1 12 11 7 9 5 6 5 5 3 6 nan
nan 14 12 15 17 16 12 12 13 13 8 -1 3 12 13 14 6 9 8 7 12 8 -3 -2 11 19 12 12 6 10 18 6 14 14 10 1 9 8 7 12 8 8 10 3 -0 7 nan
nan 13 14 13 12 16 15 12 13 13 -1 -8 6 15 16 8 6 10 13 8 10 7 2 6 4 14 10 9 16 8 5 14 22 16 11 2 5 10 8 5 11 8 9 10 3 9 nan
nan 11 11 12 12 12 16 15 14 13 -2 -10 6 9 13 14 14 11 9 14 10 5 9 7 3 5 11 9 8 16 12 7 8 23 16 9 5 6 4 4 9 8 9 8 3 6 nan
nan 11 12 13 12 12 13 20 17 14 -4 -12 6 9 14 19 15 8 12 11 10 10 6 4 6 2 2 9 11 12 9 9 12 15 14 17 7 6 3 5 9 13 10 6 7 4 nan
nan 14 14 13 13 12 13 15 18 16 -8 -14 8 11 9 12 23 13 10 11 10 8 11 3 2 6 2 7 13 13 10 11 14 11 13 12 11 11 9 8 5 5 10 12 11 6 nan
nan 15 15 16 13 12 13 14 16 13 -12 -9 11 14 10 17 15 9 14 13 8 10 8 6 6 7 14 4 5 5 9 9 8 18 19 10 9 13 16 17 11 11 9 9 8 6 nan
nan 22 18 15 16 18 14 14 12 14 -10 -6 15 7 10 18 16 18 13 13 12 6 8 10 10 3 10 5 6 9 11 7 11 7 15 17 9 7 9 15 14 12 19 14 8 8 nan
nan 23 20 21 27 22 14 13 13 15 -3 -9 10 8 7 16 17 17 15 13 12 7 14 10 9 10 5 4 6 7 5 11 21 14 11 10 11 9 12 6 6 10 11 14 10 13 nan
nan 28 21 20 21 21 17 15 12 12 1 -5 5 9 10 14 19 16 14 12 11 15 14 14 8 7 7 8 11 11 10 7 1 12 18 15 12 8 11 13 10 12 10 10 10 12 nan
nan 44 24 18 19 17 16 16 14 14 -2 -7 12 8 9 10 18 17 16 18 11 4 13 17 8 9 11 6 11 13 11 11 12 4 7 12 16 15 4 8 15 20 21 13 9 4 nan
nan 52 23 17 17 16 16 13 19 18 -7 -9 12 10 8 14 11 11 21 14 15 7 10 9 3 12 8 7 10 8 15 19 14 10 10 6 6 10 12 12 10 13 18 10 4 6 nan
nan nan nan nan nan nan nan nan nan nan nan nan nan nan nan nan nan nan nan nan nan nan nan nan nan nan nan nan nan nan nan nan nan nan nan nan nan nan nan nan nan nan nan nan nan nan nan
CAPE
15 17 21 31 31 26 20 28 24 17 15 10 11 2 0 0 0 1 1 1 0 0 0 0 0 0 0 0 0 0 0 0 0 0 0 0 0 0 0 0 0 0 0 14 11 19 69
12 19 9 31 14 37 16 30 23 21 18 14 15 13 6 0 0 0 0 1 1 0 0 0 0 0 0 0 0 0 0 0 0 0 0 0 0 0 0 0 0 11 3 3 23 28 40
16 25 27 23 26 27 24 32 27 23 20 21 17 15 20 15 4 0 0 0 0 0 0 0 0 0 0 0 0 0 0 0 0 0 0 0 0 0 0 0 0 0 3 11 20 72 25
36 30 25 24 23 27 30 45 41 28 26 23 23 21 18 16 0 0 0 0 0 0 0 0 0 0 0 0 0 0 0 0 0 0 0 0 0 0 0 0 0 0 2 30 7 49 65
53 45 35 32 23 22 22 27 51 46 29 25 26 18 13 15 3 0 0 0 0 0 0 0 0 0 0 0 0 0 0 0 0 0 0 0 0 0 0 0 2 21 22 5 65 49 68
22 37 52 52 33 26 18 17 28 48 43 26 29 26 17 14 6 0 0 0 0 0 0 1 0 0 0 0 0 0 0 0 0 0 0 0 0 0 0 8 34 27 22 61 42 53 32
22 31 41 41 58 50 43 33 17 26 53 40 28 30 26 15 15 0 0 0 1 9 20 0 0 0 0 0 0 0 0 0 0 0 0 0 0 0 35 46 4 18 50 46 70 38 23
38 43 46 45 37 58 44 45 28 17 27 54 41 30 25 21 22 0 18 0 0 0 0 0 0 0 0 0 0 0 0 0 0 0 0 3 0 1 4 0 0 17 69 40 51 15 22
45 43 49 48 55 52 60 73 46 26 16 27 53 39 26 16 17 1 10 0 3 7 1 0 0 0 0 0 0 0 0 0 0 0 0 1 5 1 0 0 0 26 59 47 51 58 23
54 46 46 60 69 65 66 75 74 47 21 22 41 29 30 15 0 0 3 0 5 5 0 0 0 0 0 0 0 0 0 0 0 0 0 0 2 0 0 1 10 51 24 2 16 19 48
63 56 52 56 65 66 64 58 65 68 41 30 46 40 42 12 1 17 27 7 7 18 0 0 0 0 0 0 0 0 0 0 0 0 0 0 0 0 0 4 12 30 5 0 11 84 114
66 66 67 58 50 56 63 70 55 54 54 40 53 50 39 43 28 0 24 29 149 38 0 0 0 0 0 0 0 0 0 0 0 0 0 0 0 0 0 1 0 7 0 5 17 95 165
57 65 64 62 56 47 58 71 82 61 55 50 60 60 56 52 37 0 2 149 51 0 0 0 0 0 0 0 0 0 0 0 0 0 0 0 1 0 0 0 0 1 17 86 145 114 147
56 57 59 60 59 63 64 62 71 75 60 50 48 56 59 64 34 54 183 152 8 0 0 0 0 0 0 0 0 0 0 0 0 0 0 0 2 0 0 0 37 24 44 174 117 170 10
69 69 65 68 65 66 79 73 72 75 85 44 64 75 53 92 61 15 24 95 0 0 0 0 0 0 0 0 0 0 0 0 0 0 0 1 1 2 2 0 5 74 67 93 124 99 70
86 89 92 78 66 56 58 69 76 80 79 53 91 74 55 80 120 63 18 32 0 0 0 0 0 0 0 0 0 0 0 0 0 0 0 2 36 0 0 0 0 33 75 85 83 108 150
80 93 86 87 79 57 51 53 61 73 62 54 82 64 47 123 236 99 14 1 16 0 0 1 0 0 1 0 0 0 0 0 0 0 0 8 19 15 18 0 10 10 93 73 102 120 187
68 74 68 67 55 50 54 59 63 58 53 57 79 37 59 152 39 85 8 3 5 0 5 28 31 5 16 10 0 0 0 2 0 0 0 1 5 85 3 1 0 28 37 82 111 95 77
78 75 61 59 61 63 67 59 68 58 48 53 31 50 158 178 41 77 2 0 2 46 4 44 41 50 27 54 11 0 0 1 0 0 2 0 7 33 43 25 2 9 63 98 103 82 59
57 70 71 95 99 85 73 71 70 58 43 36 27 12 90 109 59 9 1 1 12 3 34 50 57 62 98 94 86 29 6 0 0 0 0 9 5 11 27 14 10 3 11 44 73 170 37
65 58 64 103 131 105 100 54 54 60 29 26 32 55 17 32 56 29 23 21 0 1 1 49 81 54 97 70 96 104 37 0 0 0 0 1 10 4 4 27 29 18 16 21 41 43 58
70 72 81 86 114 117 100 108 53 46 29 19 17 56 80 55 58 44 30 58 34 0 14 35 76 55 83 150 123 177 89 47 9 4 2 5 29 9 17 12 20 13 5 12 9 11 5
66 81 79 83 70 110 85 79 51 61 25 9 43 22 124 68 87 107 53 22 48 22 26 57 38 72 106 202 72 40 49 18 24 76 25 66 103 51 26 16 28 52 0 5 5 10 10
111 87 79 77 79 96 85 111 97 105 38 16 44 34 123 65 96 22 22 11 20 54 14 84 92 89 104 14 3 25 35 0 2 0 66 68 77 156 83 10 64 0 1 1 4 0 7
65 89 80 61 82 65 59 88 92 59 43 28 30 133 138 109 59 37 43 38 66 66 67 122 118 93 85 11 17 8 6 0 0 4 47 153 156 222 138 77 0 0 0 0 3 0 11
73 57 81 70 57 50 47 75 101 86 26 25 112 164 237 161 57 54 44 57 97 117 87 120 224 180 148 74 70 14 3 0 14 0 9 78 221 287 100 45 43 0 0 2 25 39 14
92 127 51 87 95 50 49 61 63 30 30 24 114 349 201 107 28 22 57 15 63 133 146 159 247 238 182 160 215 73 1 0 38 89 24 94 142 178 118 84 2 0 2 23 82 170 49
89 67 43 94 78 56 53 53 39 42 31 28 95 252 284 76 76 77 80 55 74 218 239 162 235 300 333 210 99 54 197 10 47 54 123 92 111 171 134 188 77 0 2 52 205 162 87
35 46 45 59 48 52 48 39 29 37 34 42 190 238 208 205 127 121 172 108 103 101 180 256 101 105 63 92 171 106 263 211 31 193 124 94 163 165 139 110 104 3 108 58 137 218 188